FW9444 Weather Reports


time (UTC)temp
C
wind
direction
speed
KPH
gust
KPH
rain 1hr
cm
rain 24hr
cm
rain mn
cm
humidity
%
barometer
mb
20260906082154 24 169 0.0 0.0 0.00 0.00 0.00 81 1008.6
20260906081649 24 146 0.0 0.0 0.00 0.00 0.00 81 1009.0
20260906081144 25 72 0.0 0.0 0.00 0.00 0.00 81 1009.0
20260906080641 25 22 1.6 3.2 0.00 0.00 0.00 81 1009.4
20260906080137 25 61 1.6 1.6 0.00 0.00 0.00 80 1009.3
20260906075636 25 101 1.6 1.6 0.00 0.00 0.00 79 1009.5
20260906075131 25 44 1.6 3.2 0.00 0.00 0.00 78 1009.6
20260906074626 25 44 1.6 1.6 0.00 0.00 0.00 78 1009.5
20260906074125 25 47 4.8 4.8 0.00 0.00 0.00 80 1009.7
20260906073620 25 5 9.7 16.1 0.00 0.00 0.00 80 1009.9
20260906073116 25 74 3.2 3.2 0.00 0.00 0.00 81 1009.7
20260906072610 26 17 4.8 9.7 0.00 0.00 0.00 81 1009.7
20260906072106 26 43 1.6 3.2 0.00 0.00 0.00 82 1009.8
20260906071603 26 153 8.0 11.3 0.00 0.00 0.00 82 1009.9
20260906071057 26 40 6.4 9.7 0.00 0.00 0.00 82 1010.0
20260906070554 26 52 8.0 11.3 0.00 0.00 0.00 80 1010.2
20260906070049 26 39 3.2 4.8 0.00 0.00 0.00 81 1009.8
20260906065548 26 80 1.6 1.6 0.00 0.00 0.00 82 1009.6
20260906065044 26 48 1.6 3.2 0.00 0.00 0.00 82 1009.2
20260906064540 26 68 0.0 1.6 0.00 0.00 0.00 83 1009.3
20260906064035 26 79 0.0 0.0 0.00 0.00 0.00 84 1009.4
20260906063530 26 115 0.0 0.0 0.00 0.00 0.00 86 1008.9
20260906063026 26 170 0.0 0.0 0.00 0.00 0.00 86 1008.9
20260906062521 26 174 0.0 0.0 0.00 0.00 0.00 86 1008.9
20260906062015 26 174 0.0 0.0 0.00 0.00 0.00 86 1009.0
20260906061511 26 174 0.0 0.0 0.00 0.00 0.00 85 1009.1
20260906061005 26 174 0.0 0.0 0.00 0.00 0.00 85 1009.4
20260906060502 25 181 0.0 0.0 0.00 0.00 0.00 86 1009.4
20260906055958 25 138 0.0 0.0 0.00 0.00 0.00 86 1009.5
20260906055454 26 137 0.0 0.0 0.00 0.00 0.00 86 1009.0
20260906054950 26 137 0.0 0.0 0.00 0.00 0.00 86 1009.1
20260906054449 26 135 0.0 0.0 0.00 0.00 0.00 86 1009.3
20260906053945 26 170 0.0 0.0 0.00 0.00 0.00 86 1009.5
20260906053441 26 177 0.0 0.0 0.00 0.00 0.00 86 1009.3
20260906052936 26 188 0.0 0.0 0.00 0.00 0.00 86 1009.2
20260906052432 26 187 0.0 0.0 0.00 0.00 0.00 85 1009.1
20260906051929 26 203 0.0 0.0 0.00 0.00 0.00 85 1008.8
20260906051424 25 243 0.0 0.0 0.00 0.00 0.00 85 1008.9
20260906050920 25 180 0.0 0.0 0.00 0.00 0.00 86 1009.0
20260906050419 25 149 0.0 0.0 0.00 0.00 0.00 86 1008.7
20260906045919 25 149 0.0 0.0 0.00 0.00 0.00 85 1008.7
20260906045418 25 149 0.0 0.0 0.00 0.00 0.00 85 1008.6
20260906044914 25 149 0.0 0.0 0.00 0.00 0.00 85 1008.9
20260906044414 25 149 0.0 0.0 0.00 0.00 0.00 84 1009.2
20260906043909 25 149 0.0 0.0 0.00 0.00 0.00 84 1009.1
20260906043405 25 153 0.0 0.0 0.00 0.00 0.00 85 1009.1
20260906042901 25 153 0.0 0.0 0.00 0.00 0.00 85 1009.2
20260906042359 25 153 0.0 0.0 0.00 0.00 0.00 85 1009.1
20260906041855 25 153 0.0 0.0 0.00 0.00 0.00 84 1009.3
20260906041351 25 153 0.0 0.0 0.00 0.00 0.00 84 1009.3
20260906040851 25 153 0.0 0.0 0.00 0.00 0.00 83 1009.0
20260906040346 25 153 0.0 0.0 0.00 0.00 0.00 83 1009.1
20260906035841 25 153 0.0 0.0 0.00 0.00 0.00 83 1009.0
20260906035337 25 153 0.0 0.0 0.00 0.00 0.00 83 1009.3
20260906034832 25 153 0.0 0.0 0.00 0.00 0.00 83 1009.1
20260906034327 25 153 0.0 0.0 0.00 0.00 0.00 82 1009.2
20260906033823 25 153 0.0 0.0 0.00 0.00 0.00 82 1009.1
20260906033321 25 153 0.0 0.0 0.00 0.00 0.00 82 1009.2
20260906032818 25 152 0.0 0.0 0.00 0.00 0.00 81 1009.2
20260906032314 25 152 0.0 0.0 0.00 0.00 0.00 81 1009.2
20260906031809 25 153 0.0 0.0 0.00 0.00 0.00 81 1009.3
20260906031305 25 153 0.0 0.0 0.00 0.00 0.00 81 1009.0
20260906030804 25 153 0.0 0.0 0.00 0.00 0.00 81 1009.1
20260906030300 25 153 0.0 0.0 0.00 0.00 0.00 81 1009.0
20260906025759 26 153 0.0 0.0 0.00 0.00 0.00 81 1009.3
20260906025253 26 88 0.0 0.0 0.00 0.00 0.00 80 1009.1
20260906024752 26 87 0.0 0.0 0.00 0.00 0.00 79 1008.8
20260906024251 26 87 0.0 0.0 0.00 0.00 0.00 79 1009.0
20260906023747 26 87 0.0 0.0 0.00 0.00 0.00 78 1008.7
20260906023242 26 88 0.0 0.0 0.00 0.00 0.00 78 1008.6
20260906022738 26 88 0.0 0.0 0.00 0.00 0.00 77 1008.6
20260906022233 26 88 0.0 0.0 0.00 0.00 0.00 76 1008.6
20260906021729 26 88 0.0 0.0 0.00 0.00 0.00 76 1008.6
20260906021228 26 88 0.0 0.0 0.00 0.00 0.00 75 1008.3
20260906020723 26 88 0.0 0.0 0.00 0.00 0.00 74 1008.3
20260906020218 27 88 0.0 0.0 0.00 0.00 0.00 73 1008.1
20260906015718 27 88 0.0 0.0 0.00 0.00 0.00 72 1008.1
20260906015210 27 88 0.0 0.0 0.00 0.00 0.00 71 1008.3
20260906014710 27 88 0.0 0.0 0.00 0.00 0.00 70 1008.1
20260906014207 27 89 0.0 0.0 0.00 0.00 0.00 71 1008.1
20260906013702 27 89 0.0 0.0 0.00 0.00 0.00 72 1007.7
20260906013157 27 89 0.0 0.0 0.00 0.00 0.00 71 1007.9
20260906012652 27 89 0.0 0.0 0.00 0.00 0.00 71 1008.1
20260906012151 27 89 0.0 0.0 0.00 0.00 0.00 71 1007.9
20260906011648 27 89 0.0 0.0 0.00 0.00 0.00 70 1007.9
20260906011142 27 89 0.0 0.0 0.00 0.00 0.00 69 1007.9
20260906010637 28 89 0.0 0.0 0.00 0.00 0.00 69 1007.8
20260906010134 28 89 0.0 0.0 0.00 0.00 0.00 66 1007.7
20260906005633 28 89 0.0 0.0 0.00 0.00 0.00 66 1007.4
20260906005133 28 89 0.0 0.0 0.00 0.00 0.00 65 1007.6
20260906004632 28 134 0.0 0.0 0.00 0.00 0.00 67 1007.5
20260906004127 28 179 0.0 0.0 0.00 0.00 0.00 68 1007.4
20260906003622 28 152 0.0 0.0 0.00 0.00 0.00 67 1007.4
20260906003118 29 150 0.0 0.0 0.00 0.00 0.00 67 1007.6
20260906002612 29 144 0.0 0.0 0.00 0.00 0.00 67 1007.5
20260906002107 30 133 0.0 0.0 0.00 0.00 0.00 65 1007.5
20260906001602 30 106 0.0 0.0 0.00 0.00 0.00 65 1007.9
20260906001057 30 157 0.0 0.0 0.00 0.00 0.00 67 1007.8
20260906000553 30 151 0.0 0.0 0.00 0.00 0.00 66 1007.7
20260906000048 31 165 0.0 0.0 0.00 0.00 0.00 64 1008.2
20260905235547 31 125 0.0 0.0 0.00 0.00 0.00 63 1008.2
20260905235042 31 107 0.0 0.0 0.00 0.00 0.00 65 1008.0
20260905234537 32 31 4.8 8.0 0.00 0.00 0.00 63 1007.9
20260905234033 35 132 0.0 0.0 0.00 0.00 0.00 58 1007.6
20260905233532 35 31 0.0 0.0 0.00 0.00 0.00 54 1007.3
20260905233027 35 118 0.0 0.0 0.00 0.00 0.00 54 1007.5
20260905232522 35 335 0.0 0.0 0.00 0.00 0.00 53 1007.1
20260905232018 35 223 0.0 0.0 0.00 0.00 0.00 53 1007.3
20260905231513 35 34 0.0 0.0 0.00 0.00 0.00 53 1007.4
20260905231010 35 23 0.0 0.0 0.00 0.00 0.00 53 1007.3
20260905230508 36 99 0.0 0.0 0.00 0.00 0.00 53 1007.2
20260905230007 36 65 0.0 0.0 0.00 0.00 0.00 52 1007.1
20260905225502 36 32 0.0 0.0 0.00 0.00 0.00 52 1007.3
20260905224957 36 171 0.0 0.0 0.00 0.00 0.00 52 1007.2
20260905224452 36 248 0.0 0.0 0.00 0.00 0.00 52 1007.2
20260905223951 36 206 0.0 0.0 0.00 0.00 0.00 51 1007.2
20260905223449 37 333 0.0 0.0 0.00 0.00 0.00 49 1007.5
20260905222944 37 27 0.0 0.0 0.00 0.00 0.00 48 1007.2
20260905222438 37 36 0.0 0.0 0.00 0.00 0.00 46 1007.2
20260905221933 37 54 0.0 0.0 0.00 0.00 0.00 47 1007.2
20260905221430 37 6 0.0 0.0 0.00 0.00 0.00 46 1007.4
20260905220926 37 7 0.0 0.0 0.00 0.00 0.00 46 1007.5
20260905220422 37 304 0.0 0.0 0.00 0.00 0.00 46 1007.5
20260905215921 37 219 0.0 0.0 0.00 0.00 0.00 47 1007.4
20260905215416 35 90 0.0 0.0 0.00 0.00 0.00 54 1007.5
20260905214913 35 79 0.0 0.0 0.00 0.00 0.00 56 1007.5
20260905214408 35 79 0.0 0.0 0.00 0.00 0.00 51 1007.4
20260905213908 36 88 0.0 0.0 0.00 0.00 0.00 51 1007.5
20260905213404 36 78 0.0 0.0 0.00 0.00 0.00 50 1007.5
20260905212859 36 89 0.0 0.0 0.00 0.00 0.00 49 1007.4
20260905212354 37 96 0.0 0.0 0.00 0.00 0.00 47 1007.4
20260905211847 38 149 0.0 0.0 0.00 0.00 0.00 45 1007.5
20260905211343 38 24 0.0 1.6 0.00 0.00 0.00 44 1007.4
20260905210834 39 181 0.0 0.0 0.00 0.00 0.00 44 1007.5
20260905210333 38 109 0.0 0.0 0.00 0.00 0.00 44 1007.6
20260905205833 38 48 1.6 1.6 0.00 0.00 0.00 45 1007.5
20260905205327 39 127 0.0 0.0 0.00 0.00 0.00 43 1007.6
20260905204826 38 194 0.0 0.0 0.00 0.00 0.00 45 1007.5
20260905204323 39 215 1.6 1.6 0.00 0.00 0.00 43 1007.6
20260905203821 38 349 0.0 0.0 0.00 0.00 0.00 44 1007.8
20260905203317 38 96 0.0 0.0 0.00 0.00 0.00 43 1007.8
20260905202813 38 102 0.0 0.0 0.00 0.00 0.00 44 1007.8
20260905202307 38 211 0.0 0.0 0.00 0.00 0.00 42 1008.0
20260905201757 38 66 1.6 3.2 0.00 0.00 0.00 43 1008.2
20260905201252 38 281 0.0 0.0 0.00 0.00 0.00 45 1008.2
20260905200747 38 272 0.0 0.0 0.00 0.00 0.00 44 1008.4
20260905200243 38 86 0.0 0.0 0.00 0.00 0.00 44 1008.5
20260905195741 38 111 0.0 0.0 0.00 0.00 0.00 45 1008.5
20260905195235 38 84 0.0 0.0 0.00 0.00 0.00 47 1008.4
20260905194731 38 3 1.6 3.2 0.00 0.00 0.00 46 1008.6
20260905194226 38 349 3.2 4.8 0.00 0.00 0.00 45 1008.6
20260905193725 38 53 0.0 1.6 0.00 0.00 0.00 45 1009.1
20260905193220 38 96 1.6 4.8 0.00 0.00 0.00 45 1008.8
20260905192716 38 211 0.0 0.0 0.00 0.00 0.00 50 1008.7
20260905192212 37 109 0.0 0.0 0.00 0.00 0.00 49 1009.0
20260905191711 38 358 0.0 1.6 0.00 0.00 0.00 46 1008.9
20260905191209 37 76 0.0 0.0 0.00 0.00 0.00 50 1008.9
20260905190708 37 11 0.0 1.6 0.00 0.00 0.00 48 1009.2
20260905190207 36 312 0.0 0.0 0.00 0.00 0.00 53 1009.4
20260905185706 36 14 0.0 0.0 0.00 0.00 0.00 52 1009.4
20260905185206 37 274 0.0 0.0 0.00 0.00 0.00 51 1009.5
20260905184701 37 48 0.0 0.0 0.00 0.00 0.00 49 1009.4
20260905184200 37 48 0.0 0.0 0.00 0.00 0.00 54 1009.3
20260905183700 36 140 0.0 0.0 0.00 0.00 0.00 57 1009.8
20260905183155 35 87 0.0 0.0 0.00 0.00 0.00 55 1009.7
20260905182654 35 78 0.0 0.0 0.00 0.00 0.00 55 1009.7
20260905182148 35 49 0.0 0.0 0.00 0.00 0.00 54 1009.8
20260905181644 35 88 0.0 0.0 0.00 0.00 0.00 53 1009.7
20260905181143 37 280 0.0 0.0 0.00 0.00 0.00 53 1010.0
20260905180637 37 102 0.0 0.0 0.00 0.00 0.00 51 1009.8
20260905180133 36 43 0.0 0.0 0.00 0.00 0.00 51 1009.8
20260905175632 36 39 0.0 1.6 0.00 0.00 0.00 53 1009.9
20260905175127 36 234 1.6 1.6 0.00 0.00 0.00 54 1009.7
20260905174623 36 186 0.0 0.0 0.00 0.00 0.00 56 1009.8
20260905174118 36 278 0.0 1.6 0.00 0.00 0.00 56 1010.1
20260905173609 36 236 1.6 3.2 0.00 0.00 0.00 55 1010.3
20260905173104 36 68 0.0 0.0 0.00 0.00 0.00 54 1010.1
20260905172603 36 205 0.0 0.0 0.00 0.00 0.00 57 1010.1
20260905172058 36 188 0.0 1.6 0.00 0.00 0.00 56 1010.3
20260905171555 36 208 0.0 0.0 0.00 0.00 0.00 58 1010.3
20260905171050 36 304 0.0 0.0 0.00 0.00 0.00 58 1010.5
20260905170547 35 300 0.0 0.0 0.00 0.00 0.00 58 1010.4
20260905170042 35 29 0.0 1.6 0.00 0.00 0.00 57 1010.5
20260905165537 35 319 0.0 0.0 0.00 0.00 0.00 56 1010.4
20260905165032 35 181 0.0 0.0 0.00 0.00 0.00 59 1010.8
20260905164532 35 163 0.0 0.0 0.00 0.00 0.00 59 1010.6
20260905164027 35 171 0.0 0.0 0.00 0.00 0.00 59 1010.4
20260905163522 35 311 0.0 0.0 0.00 0.00 0.00 58 1010.9
20260905163018 35 161 0.0 0.0 0.00 0.00 0.00 60 1011.0
20260905162514 35 36 0.0 0.0 0.00 0.00 0.00 59 1011.0
20260905162008 34 52 0.0 0.0 0.00 0.00 0.00 60 1011.1
20260905161503 33 47 1.6 3.2 0.00 0.00 0.00 60 1011.2
20260905161000 33 336 0.0 0.0 0.00 0.00 0.00 61 1011.1
20260905160459 33 336 0.0 0.0 0.00 0.00 0.00 62 1011.1
20260905155954 33 265 1.6 3.2 0.00 0.00 0.00 63 1011.3
20260905155449 33 307 0.0 0.0 0.00 0.00 0.00 63 1011.3
20260905154947 33 109 0.0 0.0 0.00 0.00 0.00 64 1011.3
20260905154443 33 289 0.0 0.0 0.00 0.00 0.00 65 1011.6
20260905153938 33 202 1.6 3.2 0.00 0.00 0.00 65 1011.5
20260905153434 32 191 0.0 0.0 0.00 0.00 0.00 67 1011.5
20260905152934 32 331 0.0 0.0 0.00 0.00 0.00 68 1011.5
20260905152434 32 296 1.6 3.2 0.00 0.00 0.00 68 1011.6
20260905151929 31 157 0.0 0.0 0.00 0.00 0.00 72 1011.3
20260905151424 31 198 0.0 0.0 0.00 0.00 0.00 74 1011.6
20260905150925 31 215 1.6 1.6 0.00 0.00 0.00 74 1011.3
20260905150424 30 358 1.6 1.6 0.00 0.00 0.00 74 1011.3
20260905145921 30 269 0.0 0.0 0.00 0.00 0.00 75 1011.5
20260905145415 30 300 1.6 1.6 0.00 0.00 0.00 74 1011.3
20260905144910 30 200 0.0 1.6 0.00 0.00 0.00 78 1011.1
20260905144405 29 306 0.0 0.0 0.00 0.00 0.00 79 1011.5
20260905143904 29 58 1.6 1.6 0.00 0.00 0.00 78 1011.5
20260905143358 28 131 0.0 0.0 0.00 0.00 0.00 80 1011.6
20260905142858 28 151 0.0 0.0 0.00 0.00 0.00 83 1011.6
20260905142356 28 151 1.6 1.6 0.00 0.00 0.00 83 1011.5
20260905141852 28 150 0.0 0.0 0.00 0.00 0.00 83 1011.7
20260905141347 27 149 0.0 0.0 0.00 0.00 0.00 86 1011.6
20260905140844 27 1 0.0 0.0 0.00 0.00 0.00 85 1011.7
20260905140344 27 149 0.0 0.0 0.00 0.00 0.00 86 1011.9
20260905135842 27 124 0.0 0.0 0.00 0.00 0.00 87 1011.8
20260905135338 27 88 0.0 0.0 0.00 0.00 0.00 88 1011.9
20260905134833 26 82 0.0 0.0 0.00 0.00 0.00 89 1011.7
20260905134327 26 58 0.0 0.0 0.00 0.00 0.00 89 1011.7
20260905133827 26 59 0.0 0.0 0.00 0.00 0.00 91 1011.9
20260905133322 26 59 0.0 0.0 0.00 0.00 0.00 91 1011.9
20260905132821 26 58 0.0 0.0 0.00 0.00 0.00 91 1011.9
20260905132317 25 58 0.0 0.0 0.00 0.00 0.00 92 1011.8
20260905131811 25 58 0.0 0.0 0.00 0.00 0.00 92 1011.9
20260905131307 25 58 0.0 0.0 0.00 0.00 0.00 93 1011.9
20260905130801 25 57 0.0 0.0 0.00 0.00 0.00 93 1012.1
20260905130300 24 55 0.0 0.0 0.00 0.00 0.00 94 1012.0
20260905125756 24 54 0.0 0.0 0.00 0.00 0.00 94 1012.1
20260905125250 24 54 0.0 0.0 0.00 0.00 0.00 94 1012.1
20260905124747 23 53 0.0 0.0 0.00 0.00 0.00 95 1011.8
20260905124243 23 53 0.0 0.0 0.00 0.00 0.00 95 1011.9
20260905123738 23 53 0.0 0.0 0.00 0.00 0.00 95 1012.1
20260905123235 23 48 0.0 0.0 0.00 0.00 0.00 95 1011.8
20260905122734 23 47 0.0 0.0 0.00 0.00 0.00 95 1012.0
20260905122229 23 47 0.0 0.0 0.00 0.00 0.00 96 1012.0
20260905121724 23 47 0.0 0.0 0.00 0.00 0.00 95 1011.9
20260905121220 23 47 0.0 0.0 0.00 0.00 0.00 95 1011.8
20260905120719 23 47 0.0 0.0 0.00 0.00 0.00 95 1011.8
20260905120214 22 47 0.0 0.0 0.00 0.00 0.00 96 1011.7
20260905115714 22 47 0.0 0.0 0.00 0.00 0.00 95 1011.5
20260905115209 22 46 0.0 0.0 0.00 0.00 0.00 95 1011.1
20260905114708 22 46 0.0 0.0 0.00 0.00 0.00 95 1011.2
20260905114206 22 44 0.0 0.0 0.00 0.00 0.00 95 1011.0
20260905113701 22 44 0.0 0.0 0.00 0.00 0.00 95 1010.8
20260905113157 22 44 0.0 0.0 0.00 0.00 0.00 95 1010.8
20260905112656 22 44 0.0 0.0 0.00 0.00 0.00 95 1011.0
20260905112152 22 43 0.0 0.0 0.00 0.00 0.00 95 1011.0
20260905111652 22 43 0.0 0.0 0.00 0.00 0.00 95 1010.9
20260905111151 22 43 0.0 0.0 0.00 0.00 0.00 95 1010.9
20260905110650 22 43 0.0 0.0 0.00 0.00 0.00 95 1010.6
20260905110146 22 43 0.0 0.0 0.00 0.00 0.00 95 1010.6
20260905105641 22 43 0.0 0.0 0.00 0.00 0.00 95 1010.6
20260905105140 22 43 0.0 0.0 0.00 0.00 0.00 95 1010.9
20260905104635 22 43 0.0 0.0 0.00 0.00 0.00 95 1010.6
20260905104130 22 43 0.0 0.0 0.00 0.00 0.00 95 1010.6
20260905103626 22 43 0.0 0.0 0.00 0.00 0.00 95 1010.6
20260905103121 23 43 0.0 0.0 0.00 0.00 0.00 95 1010.5
20260905102617 22 43 0.0 0.0 0.00 0.00 0.00 95 1010.4
20260905102114 23 43 0.0 0.0 0.00 0.00 0.00 95 1010.3
20260905101612 22 43 0.0 0.0 0.00 0.00 0.00 94 1010.3
20260905101110 22 43 0.0 0.0 0.00 0.00 0.00 94 1010.4
20260905100607 22 43 0.0 0.0 0.00 0.00 0.00 94 1010.3
20260905100101 23 43 0.0 0.0 0.00 0.00 0.00 94 1010.3
20260905095555 22 43 0.0 0.0 0.00 0.00 0.00 94 1010.2
20260905095051 22 43 0.0 0.0 0.00 0.00 0.00 94 1010.5
20260905094546 23 43 0.0 0.0 0.00 0.00 0.00 94 1010.3
20260905094045 23 43 0.0 0.0 0.00 0.00 0.00 94 1010.2
20260905093545 23 43 0.0 0.0 0.00 0.00 0.00 94 1010.3
20260905093042 23 43 0.0 0.0 0.00 0.00 0.00 94 1010.1
20260905092541 23 43 0.0 0.0 0.00 0.00 0.00 94 1010.3
20260905092038 23 43 0.0 0.0 0.00 0.00 0.00 94 1010.0
20260905091536 23 43 0.0 0.0 0.00 0.00 0.00 94 1010.1
20260905091031 23 43 0.0 0.0 0.00 0.00 0.00 94 1010.1
20260905090531 23 43 0.0 0.0 0.00 0.00 0.00 94 1010.1
20260905090026 23 43 0.0 0.0 0.00 0.00 0.00 94 1010.1
20260905085524 23 43 0.0 0.0 0.00 0.00 0.00 94 1010.1
20260905085021 23 43 0.0 0.0 0.00 0.00 0.00 94 1010.1
20260905084520 23 43 0.0 0.0 0.00 0.00 0.00 94 1010.1
20260905084015 23 44 0.0 0.0 0.00 0.00 0.00 94 1010.0
20260905083510 23 44 0.0 0.0 0.00 0.00 0.00 94 1010.1
20260905083007 23 44 0.0 0.0 0.00 0.00 0.00 94 1010.3
20260905082502 23 44 0.0 0.0 0.00 0.00 0.00 94 1010.1